Scottsbluff, NE

10:16 PM MST on November 17, 2017 (GMT -0700)
Heilig

Weather History for KBFF - January, 2009

Change the Weather History Date:

Thursday, January 22, 2009

  Actual Average Record
Temperature  
Mean Temperature 47 °F 28 °F  
Max Temperature 65 °F 41 °F 65 °F (2009)
Min Temperature 28 °F 14 °F -19 °F (1917)
Degree Days  
Heating Degree Days 18 37  
Month to date heating degree days 678 837  
Since 1 July heating degree days 3416 3609  
Cooling Degree Days 0 0  
Month to date cooling degree days 0  
Year to date cooling degree days 0  
Moisture  
Dew Point 12 °F    
Average Humidity 29    
Maximum Humidity 49    
Minimum Humidity 12    
Precipitation  
Precipitation T in 0.02 in 0.22 in (1996)
Month to date precipitation 0.12 0.29  
Year to date precipitation 0.12 0.29  
Snow  
Snow 0.00 in 0.20 in 4.00 in (2003)
Month to date snowfall 0.9 3.8  
Since 1 July snowfall 6.7 19.8  
Snow Depth 0.00 in    
Sea Level Pressure  
Sea Level Pressure 29.90 in    
Wind  
Wind Speed 10 mph (NNW)    
Max Wind Speed 26 mph    
Max Gust Speed 34 mph    
Visibility 10 miles    
Events Rain    
T = Trace of Precipitation, MM = Missing Value Source: NWS Daily Summary

Daily Weather History Graph

Daily Weather History Graph

Search for Another Location

Airport or City:

Trip Planner

Search our weather history database for the weather conditions in past years. The results will help you decide how hot, cold, wet, or windy it might be!

Date:

Astronomy

Jan. 22, 2009 Rise Set
Actual Time 7:15 AM MST 4:57 PM MST
Civil Twilight 6:45 AM MST 5:27 PM MST
Nautical Twilight 6:11 AM MST 6:01 PM MST
Astronomical Twilight 5:38 AM MST 6:34 PM MST
Moon 4:55 AM MST (1/22) 1:34 PM MST (1/22)
Length of Visible Light 10h 42m
Length of Day
9h 41m
Waning Crescent, 11% of the Moon is Illuminated
Jan 22
Waning Crescent
Jan 26
New
Feb 2
First Quarter
Feb 9
Full
Feb 16
Last Quarter

Hourly Weather History & Observations

Time (MST) Temp. Windchill Dew Point Humidity Pressure Visibility Wind Dir Wind Speed Gust Speed Precip Events Conditions
12:53 AM 34.0 °F 28.0 °F 10.9 °F 38% 29.91 in 10.0 mi North 6.9 mph - N/A   Clear
1:53 AM 28.0 °F 20.0 °F 10.9 °F 49% 29.91 in 10.0 mi NW 8.1 mph - N/A   Clear
2:53 AM 30.9 °F 23.5 °F 12.0 °F 46% 29.88 in 10.0 mi North 8.1 mph - N/A   Clear
3:53 AM 32.0 °F 27.5 °F 12.0 °F 44% 29.87 in 10.0 mi North 4.6 mph - N/A   Clear
4:53 AM 28.9 °F 22.8 °F 12.0 °F 49% 29.89 in 10.0 mi NW 5.8 mph - N/A   Clear
5:53 AM 32.0 °F 24.8 °F 14.0 °F 48% 29.90 in 10.0 mi NNW 8.1 mph - N/A   Clear
6:53 AM 30.0 °F 23.2 °F 12.9 °F 49% 29.93 in 10.0 mi NW 6.9 mph - N/A   Clear
7:53 AM 34.0 °F 26.6 °F 14.0 °F 44% 29.93 in 10.0 mi WNW 9.2 mph - N/A   Clear
8:53 AM 45.0 °F 40.1 °F 16.0 °F 31% 29.90 in 10.0 mi WNW 9.2 mph - N/A   Clear
9:53 AM 53.1 °F - 16.0 °F 23% 29.88 in 10.0 mi WNW 16.1 mph 23.0 mph N/A   Clear
10:53 AM 60.1 °F - 14.0 °F 16% 29.85 in 10.0 mi WNW 24.2 mph 33.4 mph N/A   Clear
11:53 AM 63.0 °F - 12.9 °F 14% 29.82 in 10.0 mi WNW 26.5 mph 34.5 mph N/A   Clear
12:53 PM 64.0 °F - 10.0 °F 12% 29.79 in 10.0 mi WNW 21.9 mph 32.2 mph N/A   Clear
1:53 PM 63.0 °F - 10.9 °F 13% 29.81 in 10.0 mi WNW 19.6 mph 25.3 mph N/A   Clear
2:53 PM 64.9 °F - 10.9 °F 12% 29.82 in 10.0 mi NW 16.1 mph 23.0 mph N/A   Clear
3:53 PM 57.0 °F - 12.0 °F 17% 29.84 in 10.0 mi North 5.8 mph - N/A   Clear
4:53 PM 54.0 °F - 14.0 °F 21% 29.87 in 10.0 mi NNW 6.9 mph - N/A   Clear
5:53 PM 46.0 °F 41.0 °F 10.0 °F 23% 29.91 in 10.0 mi NNE 10.4 mph - N/A   Clear
6:53 PM 45.0 °F 41.2 °F 9.0 °F 23% 29.95 in 10.0 mi NNW 6.9 mph - N/A   Mostly Cloudy
7:53 PM 45.0 °F 41.2 °F 9.0 °F 23% 29.96 in 10.0 mi West 6.9 mph - N/A   Overcast
8:53 PM 45.0 °F - 10.0 °F 24% 29.98 in 10.0 mi Calm Calm - N/A   Overcast
9:53 PM 43.0 °F 38.8 °F 10.9 °F 27% 29.96 in 10.0 mi ENE 6.9 mph - N/A   Overcast
10:53 PM 43.0 °F 38.8 °F 10.0 °F 26% 29.95 in 10.0 mi NE 6.9 mph - N/A   Overcast
11:53 PM 39.9 °F 32.9 °F 14.0 °F 35% 30.00 in 10.0 mi NE 11.5 mph - 0.00 in Rain Light Rain